Home > Weather > Kaunas > Past weeks

Flag for Lithuania Weather for the Past 2 Weeks in Kaunas, Lithuania

Now
43 °F

Overcast.


Feels Like: 35 °F
Forecast: 39 / 46 °F
Wind: 15 mph from South

Location: Kaunas

Current Time: Feb 9, 2016 at 2:25:25 AM

Latest Report: Feb 9, 2016 at 1:50 AM


Visibility: N/A

Pressure: 29.50 "Hg

Humidity: 71%

Dew point: 34 °F

Location of KaunasLocation

Historic Weather in Kaunas — Graph

°F

Kaunas Temperature Yesterday

Maximum temperature yesterday: 41 °F (at 11:20 PM)
Minimum temperature yesterday: 34 °F (at 4:20 AM)
Average temperature yesterday: 38 °F

High & Low Weather Summary for the Past Weeks

 TemperatureHumidityPressure
High45 °F (Jan 28, 11:20 AM)100% (Jan 25, 1:20 AM)30.18 "Hg (Jan 25, 1:20 AM)
Low27 °F (Feb 6, 1:20 AM)61% (Feb 7, 1:50 PM)29.30 "Hg (Jan 31, 4:20 AM)
Average37 °F84%29.76 "Hg
* Reported Jan 25 1:20 AM — Feb 9 1:20 AM, Kaunas, Weather by CustomWeather, © 2016

Note: Actual official high and low records may vary slightly from our data, if they occured in-between our weather recording intervals... More about our weather records

Advertising

Kaunas Weather History for the Previous 24 Hours

 ConditionsComfort  
Time TempWeatherWind HumidityBarometerVisibility
1:20 AM
Tue, Feb 9
43 °FMostly cloudy.15 mph71%29.50 "HgN/A
12:20 AM43 °FOvercast.12 mph71%29.53 "HgN/A
11:50 PM
Mon, Feb 8
41 °FClear.13 mph76%29.53 "Hg10 mi
11:20 PM41 °FClear.14 mph76%29.53 "Hg10 mi
10:50 PM39 °FClear.12 mph75%29.56 "Hg10 mi
10:20 PM39 °FPassing clouds.13 mph75%29.56 "HgN/A
9:50 PM39 °FPassing clouds.12 mph75%29.56 "HgN/A
9:20 PM39 °FClear.12 mph81%29.59 "Hg10 mi
8:50 PM39 °FClear.12 mph81%29.59 "Hg10 mi
8:20 PM39 °FClear.12 mph81%29.62 "Hg10 mi
7:50 PM37 °FPassing clouds.12 mph87%29.62 "HgN/A
7:20 PM39 °FClear.13 mph81%29.62 "Hg10 mi
6:50 PM39 °FPassing clouds.10 mph81%29.62 "HgN/A
6:20 PM39 °FClear.12 mph81%29.62 "Hg10 mi
5:50 PM39 °FClear.12 mph87%29.65 "Hg10 mi
5:20 PM39 °FClear.12 mph87%29.65 "Hg10 mi
4:50 PM39 °FCloudy.10 mph87%29.65 "HgN/A
4:20 PM39 °FMore clouds than sun.13 mph87%29.65 "Hg6 mi
3:50 PM39 °FOvercast.10 mph87%29.68 "HgN/A
3:20 PM39 °FDrizzle. Low clouds.10 mph87%29.68 "HgN/A
2:50 PM39 °FClear.10 mph87%29.68 "HgN/A
2:20 PM39 °FLight rain. Clear.9 mph87%29.71 "Hg6 mi
1:50 PM39 °FDrizzle. Overcast.8 mph81%29.71 "HgN/A
1:20 PM37 °FLight rain. Overcast.8 mph87%29.71 "HgN/A
12:50 PM37 °FDrizzle. Overcast.8 mph87%29.71 "HgN/A
12:20 PM37 °FLight rain. Mostly cloudy.8 mph87%29.71 "Hg6 mi
11:50 AM37 °FLight rain. Overcast.9 mph87%29.71 "Hg6 mi
11:20 AM39 °FOvercast.9 mph75%29.71 "HgN/A
10:50 AM39 °FOvercast.12 mph75%29.71 "HgN/A
10:20 AM39 °FPassing clouds.13 mph75%29.71 "HgN/A
9:50 AM37 °FPassing clouds.13 mph75%29.71 "HgN/A
9:20 AM37 °FPassing clouds.12 mph75%29.71 "HgN/A
8:50 AM36 °FPassing clouds.10 mph81%29.71 "HgN/A
8:20 AM36 °FPassing clouds.10 mph81%29.68 "HgN/A
7:50 AM36 °FPassing clouds.10 mph81%29.68 "HgN/A
7:20 AM36 °FClear.9 mph75%29.68 "Hg10 mi
6:50 AM34 °FClear.12 mph81%29.68 "Hg10 mi
6:20 AM34 °FPassing clouds.9 mph81%29.68 "HgN/A
5:20 AM34 °FPassing clouds.10 mph81%29.71 "HgN/A
4:50 AM34 °FClear.10 mph81%29.71 "Hg10 mi
4:20 AM34 °FPassing clouds.12 mph81%29.71 "HgN/A
3:50 AM36 °FPassing clouds.12 mph75%29.71 "HgN/A
3:20 AM36 °FChilly.10 mph75%29.74 "HgN/A
2:50 AM36 °FChilly.10 mph75%29.74 "HgN/A
2:20 AM36 °FChilly.12 mph75%29.74 "HgN/A
Weather by CustomWeather, © 2016

See weather overviewHow to use our weather pages